This demonstration page uses our WeatherBlox Daily Observations layout. Learn more.

Left ArrowRight Arrow

39.92423, -83.80882

Hourly Observations for January 13, 2019

Temp ( °F °C ) Dew Point ( °F °C ) Humidity (%) Winds ( mph kmh ) Pressure ( in mb ) Visibility ( mi km ) Precip ( " mm )
12:28 am 00:28 Cloudy 28 -2 27 -3 93 93 NE 15 24 30.24 1024 8 13 N/A
12:56 am 00:56 Cloudy 28 -2.2 27 -2.8 96 96 ENE 14 22 30.22 1023 9 14 N/A
1:56 am 01:56 Cloudy 28 -2.2 27 -2.8 96 96 NE 14 22 30.23 1024 7 11 N/A
2:56 am 02:56 Cloudy with Mist and Fog 27 -2.8 26 -3.3 96 96 NE 18 30 30.20 1023 6 10 N/A
3:56 am 03:56 Cloudy 27 -2.8 26 -3.3 96 96 NE 15 24 30.22 1023 8 13 N/A
4:56 am 04:56 Cloudy with Light Snow 27 -2.8 26 -3.3 96 96 NE 16 26 30.21 1023 4 6 N/A
5:56 am 05:56 Cloudy with Light Snow 27 -2.8 25 -3.9 92 92 NE 14 22 30.22 1023 4 6 N/A
6:21 am 06:21 Cloudy with Light Snow 27 -3 27 -3 100 100 NE 14 22 30.27 1025 3 4 N/A
6:56 am 06:56 Cloudy with Light Snow 27 -2.8 26 -3.3 96 96 NE 16 26 30.21 1023 3 5 N/A
7:10 am 07:10 Cloudy with Light Snow 27 -3 27 -3 100 100 NE 15 24 30.27 1025 3 5 N/A
7:34 am 07:34 Cloudy with Light Snow 27 -3 25 -4 93 93 NE 15 24 30.27 1025 4 6 N/A
7:56 am 07:56 Cloudy with Light Snow 27 -2.8 25 -3.9 92 92 NE 15 24 30.21 1023 1 2 N/A
8:12 am 08:12 Cloudy with Light Snow 27 -3 27 -3 100 100 NE 17 28 30.24 1024 1 2 N/A
8:56 am 08:56 Cloudy with Light Snow 27 -2.8 25 -3.9 92 92 NE 17 28 30.21 1023 2 2 N/A
9:18 am 09:18 Cloudy with Light Snow 27 -3 25 -4 93 93 NE 16 26 30.27 1025 2 2 N/A
9:45 am 09:45 Cloudy with Light Snow 27 -3 27 -3 100 100 NE 15 24 30.27 1025 2 3 N/A
9:56 am 09:56 Cloudy with Light Snow 27 -2.8 26 -3.3 96 96 NE 16 26 30.23 1024 2 2 N/A
10:23 am 10:23 Cloudy with Light Snow 27 -3 25 -4 93 93 NE 16 26 30.27 1025 2 3 N/A
10:47 am 10:47 Cloudy with Light Snow 27 -3 27 -3 100 100 NE 13 20 30.30 1026 3 5 N/A
10:56 am 10:56 Cloudy with Light Snow 28 -2.2 25 -3.9 88 88 NE 16 26 30.24 1024 4 6 N/A
11:30 am 11:30 Mostly Cloudy 28 -2 25 -4 86 86 NE 12 19 30.24 1024 10 16 N/A
11:56 am 11:56 Mostly Cloudy 28 -2.2 25 -3.9 88 88 NNE 10 17 30.23 1024 10 16 N/A
12:56 pm 12:56 Cloudy with Light Snow 29 -1.7 26 -3.3 89 89 NNE 15 24 30.21 1023 9 14 N/A
1:56 pm 13:56 Cloudy 29 -1.7 25 -3.9 85 85 N 15 24 30.21 1023 8 13 N/A
2:56 pm 14:56 Cloudy 29 -1.7 25 -3.9 85 85 NNE 15 24 30.22 1023 10 16 N/A
3:56 pm 15:56 Cloudy 30 -1.1 25 -3.9 82 82 NNE 13 20 30.24 1024 10 16 N/A
4:13 pm 16:13 Cloudy 30 -1 27 -3 86 86 NNE 10 17 30.27 1025 10 16 N/A
4:56 pm 16:56 Cloudy 31 -0.6 27 -2.8 85 85 NNE 12 19 30.24 1024 10 16 N/A
5:56 pm 17:56 Cloudy 30 -1.1 27 -2.8 88 88 NNE 18 30 30.25 1024 10 16 N/A
6:56 pm 18:56 Cloudy 30 -1.1 27 -2.8 88 88 NNE 12 19 30.28 1025 10 16 N/A
7:18 pm 19:18 Cloudy 28 -2 27 -3 93 93 NNE 14 22 30.33 1027 10 16 N/A
7:56 pm 19:56 Cloudy 29 -1.7 26 -3.3 89 89 NNE 10 17 30.29 1026 10 16 N/A
8:56 pm 20:56 Cloudy 28 -2.2 26 -3.3 92 92 NNE 10 17 30.30 1026 10 16 N/A
9:48 pm 21:48 Cloudy 28 -2 27 -3 93 93 NNE 9 15 30.36 1028 10 16 N/A
9:56 pm 21:56 Cloudy 28 -2.2 26 -3.3 92 92 N 9 15 30.32 1027 10 16 N/A
10:56 pm 22:56 Cloudy 28 -2.2 26 -3.3 92 92 N 10 17 30.32 1027 10 16 N/A
11:56 pm 23:56 Cloudy 27 -2.8 26 -3.3 96 96 NNE 12 19 30.31 1026 10 16 N/A

Powered by AerisWeather